Stoneville, NC

2:42 PM EST on December 10, 2016 (GMT -0500)
Reidsville

Weather History for KSIF - March, 2014

Change the Weather History Date:

Wednesday, March 26, 2014

  Actual Average (KGSO) Record (KGSO)
Temperature  
Mean Temperature 36 °F -  
Max Temperature 45 °F 61 °F 86 °F (1929)
Min Temperature 25 °F 37 °F 12 °F (1972)
Degree Days  
Heating Degree Days 30    
Moisture  
Dew Point 15 °F    
Average Humidity 47    
Maximum Humidity 75    
Minimum Humidity 25    
Precipitation  
Precipitation 0.03 in - - ()
Sea Level Pressure  
Sea Level Pressure 30.18 in    
Wind  
Wind Speed 6 mph (NW)    
Max Wind Speed 13 mph    
Max Gust Speed 22 mph    
Visibility 10 miles    
Events Snow    
Averages and records for this station are not official NWS values.
T = Trace of Precipitation, MM = Missing Value Source: NWS Daily Summary

Daily Weather History Graph

Daily Weather History Graph

Search for Another Location

Airport or City:

Trip Planner

Search our weather history database for the weather conditions in past years. The results will help you decide how hot, cold, wet, or windy it might be!

Date:

Astronomy

Mar. 26, 2014 Rise Set
Actual Time 7:14 AM EDT 7:36 PM EDT
Civil Twilight 6:48 AM EDT 8:02 PM EDT
Nautical Twilight 6:18 AM EDT 8:32 PM EDT
Astronomical Twilight 5:47 AM EDT 9:03 PM EDT
Moon 4:14 AM EDT (3/26) 3:19 PM EDT (3/26)
Length of Visible Light 13h 13m
Length of Day
12h 22m
Waning Crescent, 22% of the Moon is Illuminated
Mar 26
Waning Crescent
Mar 30
New
Apr 7
First Quarter
Apr 15
Full
Apr 22
Last Quarter

Hourly Weather History & Observations

Time (EDT) Temp. Windchill Dew Point Humidity Pressure Visibility Wind Dir Wind Speed Gust Speed Precip Events Conditions
12:15 AM 33.1 °F 27.7 °F 20.7 °F 60% 29.99 in 10.0 mi NNW 5.8 mph - N/A   Clear
12:35 AM 33.6 °F 26.2 °F 22.8 °F 65% 30.00 in 10.0 mi NW 9.2 mph 16.1 mph N/A   Clear
12:55 AM 33.1 °F 28.7 °F 22.6 °F 66% 30.01 in 10.0 mi NW 4.6 mph - N/A   Clear
1:15 AM 32.4 °F 27.9 °F 22.8 °F 68% 30.01 in 10.0 mi NW 4.6 mph - N/A   Clear
1:35 AM 32.2 °F 25.0 °F 23.4 °F 70% 30.02 in 10.0 mi NW 8.1 mph - N/A   Clear
1:55 AM 32.5 °F 25.5 °F 22.5 °F 66% 30.02 in 10.0 mi NW 8.1 mph - N/A   Clear
2:15 AM 32.5 °F 24.2 °F 22.1 °F 65% 30.03 in 10.0 mi NNW 10.4 mph 16.1 mph N/A   Scattered Clouds
2:35 AM 32.5 °F 26.2 °F 21.9 °F 65% 30.04 in 10.0 mi NNW 6.9 mph 17.3 mph N/A   Overcast
2:55 AM 31.8 °F 23.9 °F 21.0 °F 64% 30.05 in 10.0 mi NNW 9.2 mph 18.4 mph N/A   Overcast
3:15 AM 30.9 °F 23.5 °F 21.2 °F 67% 30.06 in 10.0 mi NW 8.1 mph 19.6 mph N/A   Overcast
3:35 AM 29.8 °F 23.0 °F 21.0 °F 70% 30.06 in 10.0 mi NW 6.9 mph - N/A   Scattered Clouds
3:55 AM 29.7 °F 23.7 °F 20.3 °F 68% 30.07 in 10.0 mi NNW 5.8 mph - N/A   Clear
4:15 AM 29.5 °F 25.9 °F 19.0 °F 65% 30.06 in 10.0 mi North 3.5 mph - N/A   Clear
4:35 AM 29.1 °F 25.4 °F 18.3 °F 64% 30.06 in 10.0 mi NNW 3.5 mph - N/A   Clear
4:55 AM 28.9 °F 23.9 °F 18.1 °F 64% 30.08 in 10.0 mi NW 4.6 mph - N/A   Clear
5:15 AM 28.4 °F 24.6 °F 18.1 °F 65% 30.08 in 10.0 mi WNW 3.5 mph - N/A   Clear
5:35 AM 28.8 °F 25.0 °F 16.7 °F 61% 30.09 in 10.0 mi NW 3.5 mph - N/A   Scattered Clouds
5:55 AM 28.4 °F - 15.8 °F 59% 30.10 in 10.0 mi Calm Calm - N/A   Scattered Clouds
6:15 AM 28.9 °F - 14.9 °F 56% 30.11 in 10.0 mi Calm Calm - N/A   Mostly Cloudy
6:35 AM 29.3 °F 22.3 °F 13.3 °F 51% 30.11 in 10.0 mi WNW 6.9 mph - N/A   Mostly Cloudy
6:55 AM 30.0 °F 24.1 °F 12.0 °F 47% 30.12 in 10.0 mi NW 5.8 mph - N/A   Overcast
7:15 AM 29.8 °F 26.3 °F 12.4 °F 48% 30.14 in 10.0 mi NW 3.5 mph - N/A   Mostly Cloudy
7:35 AM 29.3 °F 25.6 °F 13.1 °F 51% 30.15 in 10.0 mi WNW 3.5 mph - N/A   Mostly Cloudy
7:55 AM 30.2 °F 26.7 °F 12.0 °F 47% 30.16 in 10.0 mi NW 3.5 mph - N/A   Mostly Cloudy
8:15 AM 30.7 °F - 12.9 °F 48% 30.17 in 10.0 mi Calm Calm - N/A   Mostly Cloudy
8:35 AM 31.1 °F 27.7 °F 14.0 °F 49% 30.18 in 10.0 mi NNE 3.5 mph - N/A   Mostly Cloudy
8:55 AM 31.8 °F 27.3 °F 15.1 °F 50% 30.19 in 10.0 mi North 4.6 mph - N/A   Scattered Clouds
9:15 AM 32.0 °F 28.7 °F 15.1 °F 50% 30.20 in 10.0 mi NNW 3.5 mph - N/A   Scattered Clouds
9:35 AM 32.0 °F 25.6 °F 13.1 °F 46% 30.21 in 10.0 mi NNW 6.9 mph - N/A   Clear
9:55 AM - - - N/A% - - North - - N/A   Unknown
10:15 AM - - - N/A% - - North - - N/A   Unknown
10:35 AM 34.7 °F 30.6 °F 15.3 °F 45% 30.23 in 10.0 mi West 4.6 mph 16.1 mph 0.03 in   Scattered Clouds
10:55 AM 35.6 °F 29.9 °F 13.3 °F 40% 30.23 in 10.0 mi NNW 6.9 mph - N/A   Unknown
11:15 AM 36.1 °F 28.2 °F 12.6 °F 38% 30.23 in 4.0 mi NNW 11.5 mph 16.1 mph N/A Snow Light Snow
11:35 AM 35.8 °F 30.9 °F 11.7 °F 37% 30.24 in 10.0 mi NW 5.8 mph - N/A   Clear
11:55 AM 37.0 °F 33.3 °F 12.9 °F 37% 30.24 in 10.0 mi NW 4.6 mph 18.4 mph N/A   Clear
12:15 PM 38.7 °F 35.2 °F 12.9 °F 35% 30.24 in 10.0 mi NW 4.6 mph - N/A   Clear
12:35 PM 38.1 °F 32.3 °F 10.6 °F 32% 30.24 in 10.0 mi NNW 8.1 mph 17.3 mph N/A   Clear
12:55 PM 39.4 °F 35.2 °F 11.7 °F 32% 30.24 in 10.0 mi North 5.8 mph 16.1 mph N/A   Clear
1:15 PM 40.6 °F 36.0 °F 12.4 °F 32% 30.23 in 10.0 mi WNW 6.9 mph - N/A   Clear
1:35 PM 41.0 °F 35.8 °F 12.9 °F 32% 30.23 in 10.0 mi NNW 8.1 mph - N/A   Clear
1:55 PM 41.7 °F 38.8 °F 11.7 °F 29% 30.22 in 10.0 mi North 4.6 mph - N/A   Clear
2:15 PM 42.3 °F 36.8 °F 12.6 °F 30% 30.22 in 10.0 mi West 9.2 mph - N/A   Clear
2:35 PM 43.0 °F 37.7 °F 13.5 °F 30% 30.21 in 10.0 mi WNW 9.2 mph - N/A   Clear
2:55 PM 43.5 °F 39.4 °F 13.6 °F 30% 30.21 in 10.0 mi West 6.9 mph - N/A   Clear
3:15 PM 43.9 °F 38.8 °F 13.3 °F 29% 30.21 in 10.0 mi WNW 9.2 mph - N/A   Clear
3:35 PM 44.6 °F 38.4 °F 14.5 °F 30% 30.22 in 10.0 mi West 12.7 mph 19.6 mph N/A   Clear
3:55 PM 44.8 °F 39.9 °F 14.7 °F 30% 30.21 in 10.0 mi WSW 9.2 mph 16.1 mph N/A   Clear
4:15 PM 45.3 °F 40.6 °F 14.5 °F 29% 30.21 in 10.0 mi WSW 9.2 mph 21.9 mph N/A   Clear
4:35 PM 45.3 °F 42.3 °F 12.6 °F 27% 30.22 in 10.0 mi WNW 5.8 mph - N/A   Clear
4:55 PM 44.6 °F 40.2 °F 10.0 °F 25% 30.22 in 10.0 mi WNW 8.1 mph - N/A   Clear
5:15 PM 44.8 °F 41.0 °F 11.1 °F 26% 30.21 in 10.0 mi NW 6.9 mph 17.3 mph N/A   Clear
5:35 PM 45.5 °F 42.5 °F 12.0 °F 26% 30.21 in 10.0 mi West 5.8 mph - N/A   Clear
5:55 PM 44.8 °F 42.4 °F 11.5 °F 26% 30.22 in 10.0 mi West 4.6 mph - N/A   Clear
6:15 PM 44.6 °F 41.4 °F 10.4 °F 25% 30.22 in 10.0 mi West 5.8 mph - N/A   Clear
6:35 PM 43.9 °F 41.3 °F 9.9 °F 25% 30.23 in 10.0 mi WNW 4.6 mph - N/A   Clear
6:55 PM 43.0 °F 38.8 °F 10.6 °F 27% 30.24 in 10.0 mi West 6.9 mph - N/A   Clear
7:15 PM 42.1 °F 39.2 °F 11.1 °F 28% 30.24 in 10.0 mi WNW 4.6 mph - N/A   Clear
7:35 PM 39.9 °F 37.8 °F 12.0 °F 32% 30.24 in 10.0 mi WNW 3.5 mph - N/A   Clear
7:55 PM 39.6 °F - 11.1 °F 31% 30.25 in 10.0 mi Calm Calm - N/A   Clear
8:15 PM 36.5 °F 33.9 °F 11.8 °F 36% 30.25 in 10.0 mi NW 3.5 mph - N/A   Clear
8:35 PM 32.9 °F - 13.5 °F 45% 30.26 in 10.0 mi Calm Calm - N/A   Clear
8:55 PM 32.9 °F - 13.3 °F 44% 30.27 in 10.0 mi Calm Calm - N/A   Clear
9:15 PM 34.3 °F 31.4 °F 11.5 °F 39% 30.28 in 10.0 mi NW 3.5 mph - N/A   Clear
9:35 PM 31.6 °F - 11.7 °F 44% 30.28 in 10.0 mi Calm Calm - N/A   Clear
9:55 PM 28.4 °F - 16.0 °F 60% 30.29 in 10.0 mi Calm Calm - N/A   Clear
10:15 PM 28.6 °F - 16.2 °F 60% 30.29 in 10.0 mi Calm Calm - N/A   Clear
10:35 PM 29.1 °F - 16.7 °F 60% 30.30 in 10.0 mi Calm Calm - N/A   Clear
10:55 PM 26.4 °F - 16.9 °F 67% 30.31 in 10.0 mi Calm Calm - N/A   Clear
11:15 PM 27.7 °F - 18.3 °F 68% 30.31 in 10.0 mi Calm Calm - N/A   Clear
11:35 PM 26.2 °F - 18.3 °F 72% 30.31 in 10.0 mi Calm Calm - N/A   Clear
11:55 PM 25.3 °F - 18.3 °F 75% 30.32 in 10.0 mi Calm Calm - N/A   Clear